#timestamp,LO_Frequency,Hit,StdDev 
1513177215.3,286047001.1,N
1513177235.2,286047001.2,N
1513177255.0,286046998.3,N
1513177255.9,286046998.3,N
1513177275.8,286046998.4,N
1513177295.6,286046999.1,N
1513177315.4,286046998.8,N
1513177335.3,286047001.2,N
1513177355.1,286047000.5,N
1513177375.9,286047002.7,N
1513177395.7,286047001.4,N
1513177415.5,286047004.3,N
1513177435.4,286047002.0,N
1513177455.2,286047004.0,N
1513177475.0,286047001.5,N
1513177475.9,286047001.5,N
1513177495.8,286047002.1,N
1513177515.6,286047002.7,N
1513177535.5,286047000.0,N
1513177555.3,286046998.4,N
1513177575.1,286046998.8,N
1513177595.9,286046996.8,N
1513177615.7,286046999.2,N
1513177635.6,286046999.0,N
1513177655.4,286046998.8,N
1513177675.2,286046999.3,N
1513177695.1,286046999.4,N
1513177696.0,286046999.4,N
1513177715.8,286046998.2,N
1513177735.7,286047000.6,N
1513177755.5,286046998.1,N
1513177775.3,286046998.6,N
1513177795.2,286046998.5,N
1513177815.0,286046998.3,N
1513177815.9,286046998.3,N
1513177835.8,286046998.2,N
1513177855.6,286047001.1,N
1513177875.4,286047000.6,N
1513177895.3,286047002.4,N
1513177915.1,286046999.7,N
1513177935.8,286047000.9,N
1513177955.7,286047000.8,N
1513177975.5,286047000.8,N
1513177995.4,286046998.2,N
1513178015.2,286047001.0,N
1513178035.0,286047001.1,N
1513178035.9,286047001.1,N
1513178055.8,286047001.3,N
1513178075.6,286047000.9,N
1513178095.5,286046998.2,N
1513178115.3,286046998.1,N
1513178135.1,286046998.4,N
1513178155.9,286046998.4,N
1513178175.7,286047000.7,N
1513178195.6,286047000.8,N
1513178215.4,286047002.7,N
1513178235.2,286047002.2,N
1513178255.1,286046999.9,N
1513178256.0,286046999.9,N
1513178275.8,286047000.3,N
1513178295.7,286047001.1,N
1513178315.5,286046999.9,N
1513178335.3,286047002.3,N
1513178355.2,286046999.9,N
1513178375.0,286047002.0,N
1513178375.9,286047002.0,N
1513178395.8,286047001.3,N
1513178415.6,286047001.8,N
1513178435.4,286047001.8,N
1513178455.3,286047002.1,N
1513178475.1,286047001.9,N
1513178495.9,286047004.4,Y
1513178515.7,286047002.2,P
1513178535.5,286047000.0,N
1513178555.4,286046998.7,N
1513178575.2,286046998.4,N
1513178595.0,286046998.2,N
1513178595.9,286046998.2,N
1513178615.8,286046998.2,N
1513178635.6,286047000.1,N
1513178655.5,286047001.0,N
1513178675.3,286047002.3,N
1513178695.1,286047002.0,N
1513178715.9,286047000.1,N
1513178735.7,286047002.6,N
1513178755.5,286047002.5,N
1513178775.4,286047002.6,N
1513178795.2,286047002.2,N
1513178815.1,286047002.6,N
1513178816.0,286047002.6,N
1513178835.8,286047002.3,N
1513178855.6,286047002.4,N
1513178875.5,286047000.5,N
1513178895.3,286046999.9,N
1513178915.1,286046999.8,N
1513178935.9,286047001.6,N
1513178955.7,286046999.8,N
1513178975.6,286047000.2,N
1513178995.4,286047004.0,N
1513179015.2,286047002.6,N
1513179035.1,286047003.4,N
1513179036.0,286047003.4,N
1513179055.8,286047004.4,N
1513179075.7,286047002.4,N
1513179095.5,286047001.9,N
1513179115.3,286047004.0,N
1513179135.2,286047004.2,N
1513179155.9,286047004.4,N
1513179175.7,286047002.1,N
1513179195.6,286047001.5,N
1513179215.4,286047002.1,N
1513179235.3,286046999.8,N
1513179255.1,286047000.9,N
1513179256.0,286047000.9,N
1513179275.8,286046998.7,N
1513179295.7,286046999.4,N
1513179315.5,286046996.6,N
1513179335.4,286046999.4,N
1513179355.2,286047002.5,N
1513179375.0,286047000.3,N
1513179375.9,286047000.3,N
1513179395.8,286047000.3,N
1513179415.6,286046999.9,N
1513179435.4,286047002.1,N
1513179455.3,286047003.7,N
1513179475.1,286047001.6,N
1513179495.9,286047001.5,N
1513179515.7,286047001.3,N
1513179535.5,286047001.5,N
1513179555.4,286047002.6,N
1513179575.2,286047000.5,N
1513179595.1,286047000.6,N
1513179596.0,286047000.6,N
1513179615.8,286047002.3,N
1513179635.6,286046999.8,N
1513179655.5,286047000.5,N
1513179675.3,286047001.1,N
1513179695.1,286047001.2,N
1513179715.9,286046999.8,N
1513179735.7,286047000.6,N
1513179755.6,286047002.4,N
1513179775.4,286047002.2,N
1513179795.2,286047002.5,N
1513179815.1,286047002.4,N
1513179816.0,286047002.4,N
1513179835.8,286046999.8,N
1513179855.6,286047002.0,N
1513179875.5,286047001.8,N
1513179895.3,286047001.3,N
1513179915.2,286047003.2,Y
1513179935.9,286046999.9,P
1513179955.7,286047000.9,N
1513179975.6,286047000.8,N
1513179995.4,286047001.1,N
1513180015.2,286046998.9,N
1513180035.1,286046998.7,N
1513180036.0,286046998.7,N
1513180055.8,286046999.8,N
1513180075.7,286046999.7,N
1513180095.5,286047000.1,N
1513180115.3,286047002.8,Y
1513180135.2,286046999.9,P
1513180155.0,286047000.9,P
1513180155.9,286047000.9,N
1513180175.8,286047001.2,N
1513180195.6,286047001.2,N
1513180215.4,286047000.6,N
1513180235.3,286046998.2,Y
1513180255.1,286046999.6,P
1513180275.9,286046998.8,N
1513180295.7,286047000.4,N
1513180315.5,286047001.1,N
1513180335.4,286046998.5,N
1513180355.2,286047000.9,N
1513180375.1,286047000.3,N
1513180376.0,286047000.3,N
1513180395.8,286047000.3,N
1513180415.6,286047000.2,N
1513180435.5,286047000.3,N
1513180455.3,286046998.1,N
1513180475.1,286047000.2,N
1513180495.9,286046998.2,N
1513180515.7,286046998.1,N
1513180535.6,286047000.8,N
1513180555.4,286046999.8,N
1513180575.2,286047002.0,N
1513180595.1,286047002.2,N
1513180596.0,286047002.2,N
1513180615.8,286047002.2,N
1513180635.7,286047004.0,Y
1513180655.5,286047003.1,P
1513180675.3,286047001.8,N
1513180695.2,286047002.6,N
1513180715.0,286047001.6,N
1513180715.9,286047001.6,N
1513180735.8,286047002.7,N
1513180755.6,286047002.5,N
1513180775.4,286047002.0,N
1513180795.3,286047001.5,N
